Location: Spring Creek
(38.2870°N, 100.2160°W)
Time: 12:48:52
(UTC+00:00)

CZ-2C R/B - Pass Details

Date: 08 May 2021
Orbit: 640 x 703 km, 98.3° (Epoch: 22 June)

Event Time Altitude Azimuth Distance (km) Brightness Sun altitude
Rises 03:08:00 0° 18° (NNE) 2,965 7.3 -16.0°
Reaches altitude 10° 03:10:15 10° 24° (NNE) 2,057 6.4 -16.4°
Maximum altitude 03:14:37 51° 100° (E) 824 3.8 -17.0°
Enters shadow 03:16:48 27° 163° (SSE) 1,253 4.7 -17.3°
